Погода в Кедровке

Россия / Свердловская область     57°00′10″N   60°46′22″E
темп.,
°C
ветер,
м/с
пор.,
м/с
влажн.,
%
обл.,
%
осадки,
мм/ч
давл.,
гПа
погр.,
м
24 сентября, пт
пт2423:00+3ю24735 0.0 103068
02:00+2ю25775 0.0 102986
05:00+2ю247936 0.0 102863
08:00+3ю257484 0.0 1028139
11:00+9ююз2352100 0.0 1027361
14:00+13ю2344100 0.0 1026692
17:00+13ю2350100 0.0 1025166
20:00+7ююв226376 0.0 102610
25 сентября, сб
сб2523:00+6юв116575 0.0 102510
02:00+5юв226512 0.0 102514
05:00+4юв246680 0.0 102470
08:00+4юв286358 0.0 1023190
11:00+11юв473894 0.0 1022560
14:00+15юв563193 0.0 1020983
17:00+13юв4837100 0.0 1020932
20:00+9вюв31250100 0.0 1021288
26 сентября, вс
вс2623:00+8вюв3125396 0.0 1021323
02:00+7вюв41157100 0.0 1021365
05:00+6вюв41165100 0.0 1021410
08:00+6вюв51275100 0.0 1021440
11:00+8вюв61161100 0.0 1022695
14:00+9юв5958100 0.1 10221239
17:00+8вюв6956100 0.2 10221117
20:00+7вюв51143100 0.0 1022985
27 сентября, пн
пн2723:00+5вюв51147100 0.0 1023913
02:00+4в51152100 0.0 1023804
05:00+3в61265100 0.0 1023757
08:00+1в61471100 0.0 1024702
11:00+4в7125467 0.0 1024942
14:00+7в710455 0.0 10241406
17:00+7всв6115010 0.0 10241491
20:00+3всв511605 0.0 1026919
28 сентября, вт
вт2823:00+2св4107280 0.0 1026675
02:00+2всв4869100 0.0 10261282
05:00+2св4865100 0.0 10261273
08:00+2св4871100 0.0 1027947
11:00+3св5862100 0.0 10261382
14:00+4ссв5756100 0.0 10261493
17:00+4ссв4760100 0.0 10261270
20:00+1с397374 0.0 1026430